Flag for U.S.A. Weather past 2 weeks in Eau Claire, Wisconsin, U.S.A.

Now
15 °F

Light snow. Overcast.


Feels Like: 1 °F
Forecast: 8 / 23 °F
Wind: 13 mph from Southwest

Location: Eau Claire County Airport

Current Time: Mar 1, 2015 at 9:36:42 AM

Latest Report: Mar 1, 2015 at 8:56 AM


Visibility: 2 mi

Pressure: 30.29 "Hg

Humidity: 80%

Dew point: 10 °F

Location of Eau ClaireLocation

Historic Weather in Eau Claire — Graph

°F

Eau Claire temperature yesterday

Maximum temperature yesterday: 17 °F (at 2:56 PM)
Minimum temperature yesterday: -9 °F (at 6:56 AM)
Average temperature yesterday: 7 °F

Past Weeks' High & Low Weather Summary

 TemperatureHumidityPressure
High30 °F (Feb 24, 9:56 AM)84% (Feb 16, 7:56 PM)30.81 "Hg (Feb 16, 7:56 PM)
Low-17 °F (Feb 23, 6:56 AM)32% (Feb 24, 2:56 PM)29.65 "Hg (Feb 24, 5:56 AM)
Average5 °F60%30.29 "Hg
* Reported Feb 14 7:56 AM — Mar 1 7:56 AM, Eau Claire, Weather by CustomWeather, © 2015

Note: Actual official high and low records may vary slightly from our data, if they occured in-between our weather recording intervals... More about our weather records

Advertising

Eau Claire weather history for previous 24 hours

 ConditionsComfort  
Time TempWeatherWind HumidityBarometerVisibility
7:56 AM
Sun, Mar 1
14 °FOvercast.9 mph80%30.28 "Hg5 mi
6:56 AM13 °FOvercast.9 mph81%30.29 "Hg8 mi
5:56 AM13 °FOvercast.10 mph81%30.30 "Hg8 mi
4:56 AM13 °FOvercast.8 mph77%30.32 "Hg8 mi
3:56 AM13 °FOvercast.9 mph74%30.33 "Hg10 mi
2:56 AM13 °FLight snow. Overcast.8 mph70%30.35 "Hg8 mi
1:56 AM13 °FOvercast.9 mph64%30.37 "Hg10 mi
12:56 AM13 °FOvercast.9 mph61%30.38 "Hg10 mi
11:56 PM
Sat, Feb 28
14 °FOvercast.8 mph56%30.40 "Hg10 mi
10:56 PM12 °FOvercast.8 mph56%30.42 "Hg10 mi
9:56 PM12 °FClear.7 mph53%30.43 "Hg10 mi
8:56 PM13 °FPassing clouds.8 mph51%30.45 "Hg10 mi
7:56 PM15 °FOvercast.9 mph46%30.45 "Hg10 mi
6:56 PM15 °FOvercast.12 mph49%30.47 "Hg10 mi
5:56 PM16 °FOvercast.10 mph47%30.47 "Hg10 mi
4:56 PM17 °FPassing clouds.9 mph45%30.48 "Hg10 mi
3:56 PM17 °FSunny.14 mph42%30.50 "Hg10 mi
2:56 PM17 °FSunny.15 mph45%30.52 "Hg10 mi
1:56 PM16 °FSunny.10 mph49%30.54 "Hg10 mi
12:56 PM15 °FSunny.10 mph51%30.58 "Hg10 mi
11:56 AM13 °FSunny.10 mph59%30.61 "Hg10 mi
10:56 AM11 °FSunny.12 mph59%30.62 "Hg10 mi
9:56 AM7 °FSunny.9 mph66%30.63 "Hg10 mi
Weather by CustomWeather, © 2015

See weather overviewHow to use our weather pages